Location: Nians�bougou
(13.2321°N, 4.9818°W)
Time: 20:46:44
(UTC+00:00)

STARLINK-1031 - Pass Details

Date: 18 February 2020
Orbit: 568 x 571 km, 53.0° (Epoch: 07 April)

Event Time Altitude Azimuth Distance (km) Brightness Sun altitude
Maximum altitude 05:02:05 68° 54° (NE) 611 3.8 -24.7°
Exits shadow 05:02:05 68° 54° (NE) 611 3.8 -24.7°
Drops below altitude 10° 05:06:18 10° 138° (SE) 1,859 6.9 -23.7°
Sets 05:08:33 0° 140° (SE) 2,755 7.9 -23.2°
